Location: Sternwarte ZA, Rosenfeld-Brittheim
(48.2889°N, 8.6789°E)
Time: 04:32:52
(UTC+01:00)

ISS - Pass Details

Date: 14 January 2018
Orbit: 402 x 407 km, 51.6° (Epoch: 24 January)

Event Time Altitude Azimuth Distance (km) Brightness Sun altitude
Exits shadow 06:16:15 31° 205° (SSW) 740 -2.7 -18.7°
Drops below altitude 10° 06:18:56 10° 151° (SSE) 1,462 -0.5 -18.2°
Sets 06:21:08 0° 141° (SE) 2,319 0.9 -17.9°
